Location: Munkebjergskolens Observatorium
(55.3864°N, 10.3987°E)
Time: 22:16:01
(UTC+01:00)

DELTA 1 DEB - Pass Details

Date: 05 December 2023
Orbit: 783 x 826 km, 98.9° (Epoch: 04 March)

Event Time Altitude Azimuth Distance (km) Brightness Sun altitude
Rises 05:34:39 0° 26° (NNE) 3,370 ? -23.0°
Reaches altitude 10° 05:37:58 10° 47° (NE) 2,437 ? -22.5°
Maximum altitude 05:41:17 16° 85° (E) 2,026 ? -22.1°
Drops below altitude 10° 05:44:34 10° 123° (ESE) 2,432 ? -21.6°
Sets 05:47:52 0° 144° (SE) 3,360 ? -21.1°
